Change the Weather History Date:

Tuesday, July 23, 2013

  Actual Average Record
Temperature  
Mean Temperature 67 °F 67 °F  
Max Temperature 77 °F 83 °F 107 °F (2006)
Min Temperature 57 °F 52 °F 47 °F (2000)
Degree Days  
Heating Degree Days 0    
Month to date heating degree days 13  
Since 1 June heating degree days 50  
Since 1 July heating degree days 13  
Cooling Degree Days 2    
Month to date cooling degree days 71  
Year to date cooling degree days 226  
Since 1 June cooling degree days 171  
Growing Degree Days 18 (Base 50)    
Moisture  
Dew Point 55 °F    
Average Humidity 67    
Maximum Humidity 87    
Minimum Humidity 46    
Precipitation  
Precipitation 0.00 in 0.00 in 0.00 in (2015)
Month to date precipitation 0.01 0.01  
Year to date precipitation 6.53 22.10  
Since 1 July precipitation 0.01 0.01  
Sea Level Pressure  
Sea Level Pressure 29.95 in    
Wind  
Wind Speed 6 mph (SSE)    
Max Wind Speed 13 mph    
Max Gust Speed 15 mph    
Visibility 10 miles    
Events      
T = Trace of Precipitation, MM = Missing Value Source: NWS Daily Summary

Daily Weather History Graph

Daily Weather History Graph

Search for Another Location

Airport or City:

Trip Planner

Search our weather history database for the weather conditions in past years. The results will help you decide how hot, cold, wet, or windy it might be!

Date:

Astronomy

Jul. 23, 2013 Rise Set
Actual Time 6:05 AM PDT 8:29 PM PDT
Civil Twilight 5:35 AM PDT 8:59 PM PDT
Nautical Twilight 4:58 AM PDT 9:36 PM PDT
Astronomical Twilight 4:16 AM PDT 10:17 PM PDT
Moon 9:03 PM PDT (7/23) 7:19 AM PDT (7/23)
Length of Visible Light 15h 23m
Length of Day
14h 23m
Full, 98% of the Moon is Illuminated
Jul 23
Full
Jul 29
Last Quarter
Aug 6
New
Aug 14
First Quarter
Aug 20
Full

Hourly Weather History & Observations

Time (PDT) Temp. Dew Point Humidity Pressure Visibility Wind Dir Wind Speed Gust Speed Precip Events Conditions
12:53 AM 60.1 °F 55.0 °F 83% 29.94 in 10.0 mi Calm Calm - N/A   Clear
1:53 AM 59.0 °F 55.0 °F 87% 29.93 in 10.0 mi NW 4.6 mph - N/A   Clear
2:53 AM 60.1 °F 55.0 °F 83% 29.93 in 10.0 mi SSE 3.5 mph - N/A   Clear
3:53 AM 59.0 °F 54.0 °F 83% 29.93 in 10.0 mi Calm Calm - N/A   Clear
4:53 AM 60.1 °F 55.0 °F 83% 29.94 in 10.0 mi SE 3.5 mph - N/A   Clear
5:53 AM 59.0 °F 54.0 °F 83% 29.96 in 10.0 mi SSW 5.8 mph - N/A   Clear
6:53 AM 59.0 °F 55.0 °F 87% 29.98 in 10.0 mi ESE 4.6 mph - N/A   Mostly Cloudy
7:53 AM 61.0 °F 55.0 °F 81% 29.96 in 10.0 mi Calm Calm - N/A   Mostly Cloudy
8:53 AM 64.9 °F 55.0 °F 70% 29.97 in 10.0 mi Calm Calm - N/A   Mostly Cloudy
9:53 AM 68.0 °F 55.0 °F 63% 29.97 in 10.0 mi South 4.6 mph - N/A   Clear
10:53 AM 72.0 °F 54.0 °F 53% 29.97 in 10.0 mi South 6.9 mph - N/A   Mostly Cloudy
11:53 AM 73.0 °F 57.0 °F 57% 29.97 in 10.0 mi SSW 8.1 mph - N/A   Mostly Cloudy
12:53 PM 77.0 °F 55.0 °F 47% 29.97 in 10.0 mi South 8.1 mph - N/A   Overcast
1:53 PM 75.9 °F 55.0 °F 48% 29.97 in 10.0 mi South 9.2 mph - N/A   Overcast
2:53 PM 75.0 °F 54.0 °F 48% 29.96 in 10.0 mi South 8.1 mph - N/A   Overcast
3:53 PM 75.9 °F 54.0 °F 46% 29.95 in 10.0 mi SSE 9.2 mph - N/A   Overcast
4:53 PM 75.0 °F 55.0 °F 50% 29.94 in 10.0 mi South 10.4 mph - N/A   Overcast
5:53 PM 73.9 °F 55.9 °F 53% 29.93 in 10.0 mi South 6.9 mph - N/A   Mostly Cloudy
6:53 PM 71.1 °F 55.9 °F 59% 29.93 in 10.0 mi SSE 8.1 mph - N/A   Clear
7:53 PM 66.9 °F 55.0 °F 66% 29.94 in 10.0 mi SSE 6.9 mph - N/A   Clear
8:53 PM 64.9 °F 55.0 °F 70% 29.94 in 10.0 mi SSE 9.2 mph - N/A   Clear
9:53 PM 62.1 °F 54.0 °F 75% 29.95 in 10.0 mi SSE 5.8 mph - N/A   Clear
10:53 PM 59.0 °F 54.0 °F 83% 29.96 in 10.0 mi SSE 6.9 mph - N/A   Clear
11:53 PM 57.9 °F 54.0 °F 87% 29.96 in 10.0 mi SSE 5.8 mph - N/A   Clear